Home > Weather > Kloten > Past weeks

Flag for Switzerland Weather for the Past 2 Weeks in Kloten, Zurich, Switzerland

Now
36 °F

Light rain. Partly cloudy.


Feels Like: 31 °F
Forecast: 32 / 41 °F
Wind: 6 mph from Southwest

Location: Zurich-Kloten

Current Time: Feb 12, 2016 at 1:18:31 AM

Latest Report: Feb 12, 2016 at 12:20 AM


Visibility: N/A

Pressure: 29.74 "Hg

Humidity: 81%

Dew point: 30 °F

Location of KlotenLocation

Historic Weather in Kloten — Graph

°F

Kloten Temperature Yesterday

Maximum temperature yesterday: 43 °F (at 1:50 PM)
Minimum temperature yesterday: 32 °F (at 4:50 AM)
Average temperature yesterday: 37 °F

High & Low Weather Summary for the Past Weeks

 TemperatureHumidityPressure
High55 °F (Feb 1, 11:20 AM)100% (Jan 30, 3:50 AM)30.48 "Hg (Jan 30, 3:50 AM)
Low30 °F (Jan 30, 5:50 AM)46% (Feb 11, 2:20 PM)29.33 "Hg (Feb 9, 4:50 PM)
Average42 °F80%30.06 "Hg
* Reported Jan 27 10:20 PM — Feb 11 10:50 PM, Kloten, Weather by CustomWeather, © 2016

Note: Actual official high and low records may vary slightly from our data, if they occured in-between our weather recording intervals... More about our weather records

Advertising

Kloten Weather History for the Previous 24 Hours

 ConditionsComfort  
Time TempWeatherWind HumidityBarometerVisibility
10:50 PM
Thu, Feb 11
37 °FPartly cloudy.9 mph65%29.74 "HgN/A
10:20 PM36 °FPartly cloudy.1 mph65%29.74 "HgN/A
9:50 PM36 °FPassing clouds.2 mph65%29.74 "HgN/A
9:20 PM34 °FClear.No wind70%29.71 "HgN/A
8:50 PM34 °FClear.1 mph75%29.74 "Hg10 mi
8:20 PM36 °FClear.No wind70%29.71 "Hg10 mi
7:50 PM37 °FClear.3 mph56%29.71 "Hg10 mi
7:20 PM37 °FClear.3 mph60%29.71 "Hg10 mi
6:50 PM37 °FClear.No wind60%29.71 "Hg10 mi
6:20 PM39 °FPassing clouds.3 mph56%29.71 "HgN/A
5:50 PM39 °FClear.3 mph52%29.71 "Hg10 mi
5:20 PM39 °FBroken clouds.3 mph52%29.71 "HgN/A
4:50 PM41 °FBroken clouds.2 mph53%29.71 "HgN/A
4:20 PM41 °FBroken clouds.3 mph49%29.71 "HgN/A
3:50 PM41 °FPartly sunny.3 mph49%29.71 "HgN/A
3:20 PM41 °FPartly sunny.5 mph49%29.74 "HgN/A
2:50 PM43 °FBroken clouds.6 mph46%29.74 "HgN/A
2:20 PM43 °FScattered clouds.8 mph46%29.74 "HgN/A
1:50 PM43 °FScattered clouds.6 mph49%29.74 "HgN/A
1:20 PM41 °FPassing clouds.7 mph57%29.77 "HgN/A
12:50 PM41 °FPassing clouds.9 mph61%29.77 "HgN/A
12:20 PM41 °FPassing clouds.8 mph61%29.80 "HgN/A
11:50 AM41 °FPassing clouds.6 mph61%29.80 "HgN/A
11:20 AM39 °FPassing clouds.5 mph61%29.80 "HgN/A
10:50 AM37 °FPassing clouds.6 mph65%29.80 "HgN/A
10:20 AM37 °FPassing clouds.6 mph65%29.80 "HgN/A
9:50 AM37 °FPassing clouds.7 mph70%29.80 "HgN/A
9:20 AM36 °FPassing clouds.5 mph70%29.80 "HgN/A
8:50 AM36 °FPassing clouds.5 mph70%29.80 "HgN/A
8:20 AM36 °FPartly sunny.3 mph75%29.80 "HgN/A
7:50 AM34 °FPartly sunny.3 mph81%29.80 "HgN/A
7:20 AM34 °FPassing clouds.1 mph81%29.80 "HgN/A
6:50 AM34 °FPassing clouds.3 mph81%29.80 "HgN/A
6:20 AM34 °FPassing clouds.3 mph81%29.80 "HgN/A
5:20 AM34 °FPassing clouds.7 mph75%29.80 "HgN/A
4:50 AM32 °FPassing clouds.7 mph87%29.77 "HgN/A
4:20 AM34 °FPassing clouds.7 mph81%29.77 "HgN/A
3:50 AM34 °FPassing clouds.7 mph81%29.77 "HgN/A
3:20 AM34 °FPassing clouds.9 mph81%29.77 "HgN/A
2:20 AM34 °FPassing clouds.9 mph81%29.77 "HgN/A
1:50 AM34 °FPassing clouds.8 mph81%29.74 "HgN/A
1:20 AM34 °FPassing clouds.8 mph81%29.74 "HgN/A
Weather by CustomWeather, © 2016

See weather overviewHow to use our weather pages